Regional Weather Roundup
Issued by NWS State College, PA

Home | Current Version | Previous Version | Graphics & Text | Print | Product List | Glossary On
Versions: 1 2 3 4 5 6 7 8 9 10 11 12 13 14 15 16 17 18 19 20 21 22 23 24 25 26 27 28 29 30 31 32 33 34 35 36 37 38 39 40 41 42 43 44 45 46 47 48 49 50
000
ASUS41 KCTP 241503
RWRCTP

REGIONAL WEATHER ROUNDUP
NATIONAL WEATHER SERVICE STATE COLLEGE PA
1100 AM EDT FRI MAR 24 2017

Note: "fair" indicates few or no clouds below 12,000 feet with no
significant weather and/or obstructions to visibility.

* = STATION THAT DOES NOT REPORT PRECIPITATION /E.G. RAIN...SNOW...ETC/
    THUNDER OR FOG.

PAZ002>004-007>009-013>016-020>023-029>032-241600-
WESTERN PENNSYLVANIA

CITY           SKY/WX    TMP DP  RH WIND       PRES   REMARKS
ERIE           CLOUDY    58  40  51 S21G29    30.04F
MEADVILLE      CLOUDY    53  37  54 SW18      30.10F
FRANKLIN*      CLOUDY    54  39  58 SW20G25   30.14
NEW CASTLE     PTSUNNY   54  38  54 SW8G18    30.16F
BEAVER COUNTY  PTSUNNY   52  36  54 SW12G23   30.17F
BUTLER*        CLOUDY    54  37  54 SW14G20   30.19F
PITTSBURGH INT CLOUDY    55  37  50 SW15G24   30.19F
PITTSBURGH     PTSUNNY   54  36  50 SW15G30   30.20F
INDIANA*       MOSUNNY   54  45  71 SW14G23   30.22F
LATROBE        CLOUDY    55  41  58 SW20G31   30.23F
WASHINGTON CO* PTSUNNY   57  39  51 SW10G23   30.24F
$$

PAZ004>006-010>012-017>019-024>028-033>037-041-042-045-046-049>053-241600-
CENTRAL PENNSYLVANIA

CITY           SKY/WX    TMP DP  RH WIND       PRES   REMARKS
BRADFORD       CLOUDY    46  39  76 SW12G20   30.12F
DUBOIS         CLOUDY    51  38  60 SW16G25   30.16F
CLEARFIELD       N/A    N/A N/A N/A MISG      30.20F
JOHNSTOWN      CLOUDY    49  41  74 SW12      30.22S
ALTOONA        CLOUDY    42  38  85 SW13      30.26F
STATE COLLEGE  CLOUDY    39  30  70 SW9       30.25F
WILLIAMSPORT   CLOUDY    35  26  69 E13G20    30.29F
SELINSGROVE    CLOUDY    37  28  70 S7        30.32F
FT INDIANTOWN  PTSUNNY   37  30  78 CALM      30.36F
CAPITAL CITY   CLOUDY    40  28  62 S7        30.37F
HARRISBURG     CLOUDY    40  29  64 S9G21     30.37F
YORK           CLOUDY    40  32  73 SW9       30.37S
$$

PAZ038>040-043-044-047-048-054-055-060>062-067>071-241600-
EASTERN PENNSYLVANIA

CITY           SKY/WX    TMP DP  RH WIND       PRES   REMARKS
SCRANTON       RAIN      36  29  75 S7        30.29F
MOUNT POCONO   MIX PCPN  31  25  78 SW9       30.28R
ALLENTOWN      LGT RAIN  42  27  55 S9        30.38F
QUAKERTOWN*    CLOUDY    41  28  60 SW12G17   30.39F
READING        LGT RAIN  39  30  70 S14       30.38S
LANCASTER      LGT RAIN  41  29  62 S8        30.38F
COATESVILLE    CLOUDY    41  28  60 S8G17     30.40S
POTTSTOWN      CLOUDY    41  27  57 S10       30.41F
BLUE BELL      CLOUDY    41  28  60 S13       30.39F
DOYLESTOWN     CLOUDY    35  26  69 S13G20    30.38F
WILLOW GROVE   NOT AVBL
NORTH PHILA    CLOUDY    46  22  38 SW16      30.44F
PHILADELPHIA   CLOUDY    45  26  47 SW14G25   30.43F
$$




USA.gov is the U.S. government's official web portal to all federal, state and local government web resources and services.